When you browse on this site, cookies collect data to enhance your experience and personalize the content and advertising you see.
Visit our Privacy Policy to learn more. By continuing to use the site, you agree to this use of cookies and data.
  • In United Kingdom
  • List of Countries
  • For 7 days
  • Water Temperature
  • Satellite Maps
  • Weather Map
  • Weather Widgets
  • user-avatar
    Login

    Hourly Weather Ahtopol

    Today, 27 May, Monday

    Time Temperature Precipitation Wind Pressure Humidity
    00:00 +19°C° 0 mm 1 mps 761 mmHg 87%
    01:00 +18°C° 0 mm 1 mps 761 mmHg 87%
    02:00 +18°C° 0 mm 1 mps 760 mmHg 88%
    03:00 +18°C° 0 mm 1 mps 760 mmHg 88%
    04:00 +18°C° 0 mm 1 mps 760 mmHg 88%
    05:00 +18°C° 0 mm 1 mps 760 mmHg 88%
    06:00 +20°C° 0 mm 1 mps 760 mmHg 80%
    07:00 +22°C° 0 mm 1 mps 760 mmHg 73%
    08:00 +24°C° 0 mm 1 mps 761 mmHg 65%
    09:00 +25°C° 0 mm 2 mps 761 mmHg 60%
    10:00 +26°C° 0 mm 3 mps 761 mmHg 54%
    11:00 +27°C° 0 mm 4 mps 760 mmHg 49%
    12:00 +27°C° 0 mm 4 mps 760 mmHg 49%
    13:00 +27°C° 0 mm 5 mps 760 mmHg 49%
    14:00 +27°C° 0 mm 5 mps 760 mmHg 50%
    15:00 +26°C° 0 mm 5 mps 759 mmHg 53%
    16:00 +25°C° 0 mm 5 mps 759 mmHg 56%
    17:00 +25°C° 0 mm 5 mps 759 mmHg 60%
    18:00 +22°C° 0 mm 4 mps 759 mmHg 68%
    19:00 +20°C° 0 mm 4 mps 759 mmHg 76%
    20:00 +18°C° 0 mm 3 mps 759 mmHg 85%
    21:00 +17°C° 0 mm 3 mps 759 mmHg 87%
    22:00 +17°C° 0 mm 2 mps 759 mmHg 89%
    23:00 +16°C° 0 mm 2 mps 759 mmHg 91%

    Tomorrow, 28 May, Tuesday

    Time Temperature Precipitation Wind Pressure Humidity
    00:00 +16°C° 0 mm 2 mps 759 mmHg 90%
    01:00 +16°C° 0 mm 2 mps 758 mmHg 90%
    02:00 +16°C° 0 mm 1 mps 758 mmHg 89%
    03:00 +16°C° 0 mm 1 mps 758 mmHg 89%
    04:00 +16°C° 0 mm 1 mps 758 mmHg 89%
    05:00 +16°C° 0 mm 1 mps 757 mmHg 89%
    06:00 +19°C° 0 mm 1 mps 757 mmHg 82%
    07:00 +20°C° 0 mm 2 mps 757 mmHg 74%
    08:00 +23°C° 0 mm 2 mps 757 mmHg 67%
    09:00 +25°C° 0 mm 2 mps 757 mmHg 62%
    10:00 +27°C° 0 mm 3 mps 757 mmHg 57%
    11:00 +29°C° 0 mm 3 mps 757 mmHg 52%
    12:00 +30°C° 0 mm 4 mps 756 mmHg 51%
    13:00 +32°C° 0 mm 4 mps 756 mmHg 49%
    14:00 +32°C° 0 mm 4 mps 755 mmHg 47%
    15:00 +32°C° 0 mm 4 mps 755 mmHg 49%
    16:00 +30°C° 0 mm 4 mps 755 mmHg 51%
    17:00 +30°C° 0 mm 3 mps 754 mmHg 53%
    18:00 +28°C° 0 mm 3 mps 754 mmHg 57%
    19:00 +25°C° 0 mm 3 mps 754 mmHg 62%
    20:00 +22°C° 0 mm 3 mps 754 mmHg 66%
    21:00 +21°C° 0 mm 3 mps 755 mmHg 65%
    22:00 +20°C° 0 mm 3 mps 755 mmHg 64%
    23:00 +19°C° 0 mm 4 mps 755 mmHg 62%

    Day after tomorrow, 29 May, Wednesday

    Time Temperature Precipitation Wind Pressure Humidity
    00:00 +19°C° 0 mm 3 mps 755 mmHg 68%
    01:00 +18°C° 0 mm 3 mps 755 mmHg 74%
    02:00 +18°C° 0 mm 3 mps 755 mmHg 80%
    03:00 +17°C° 0 mm 3 mps 755 mmHg 82%
    04:00 +17°C° 0 mm 3 mps 755 mmHg 85%
    05:00 +17°C° 0 mm 3 mps 755 mmHg 88%
    06:00 +19°C° 0 mm 3 mps 755 mmHg 80%
    07:00 +21°C° 0 mm 3 mps 756 mmHg 73%
    08:00 +25°C° 0 mm 3 mps 756 mmHg 66%
    09:00 +26°C° 0 mm 3 mps 756 mmHg 60%
    10:00 +28°C° 0 mm 3 mps 756 mmHg 54%
    11:00 +29°C° 0 mm 3 mps 756 mmHg 49%
    12:00 +30°C° 0 mm 3 mps 756 mmHg 47%
    13:00 +31°C° 0 mm 3 mps 756 mmHg 45%
    14:00 +31°C° 0 mm 3 mps 756 mmHg 43%
    15:00 +31°C° 0 mm 3 mps 756 mmHg 46%
    16:00 +31°C° 0 mm 3 mps 756 mmHg 48%
    17:00 +30°C° 0 mm 3 mps 756 mmHg 51%
    18:00 +28°C° 0 mm 3 mps 756 mmHg 57%
    19:00 +26°C° 0 mm 3 mps 756 mmHg 62%
    20:00 +24°C° 0 mm 3 mps 756 mmHg 68%
    21:00 +21°C° 0 mm 3 mps 756 mmHg 71%
    22:00 +20°C° 0 mm 2 mps 757 mmHg 73%
    23:00 +19°C° 0 mm 2 mps 757 mmHg 76%

    30 May, Thursday

    Time Temperature Precipitation Wind Pressure Humidity
    00:00 +18°C° 0 mm 2 mps 757 mmHg 77%
    01:00 +19°C° 0 mm 1 mps 757 mmHg 79%
    02:00 +18°C° 0 mm 1 mps 757 mmHg 80%
    03:00 +18°C° 0 mm 1 mps 757 mmHg 81%
    04:00 +18°C° 0 mm 1 mps 757 mmHg 82%
    05:00 +16°C° 0 mm 1 mps 757 mmHg 84%
    06:00 +20°C° 0 mm 1 mps 757 mmHg 77%
    07:00 +22°C° 0 mm 1 mps 757 mmHg 70%
    08:00 +24°C° 0 mm 2 mps 757 mmHg 64%
    09:00 +26°C° 0 mm 1 mps 757 mmHg 59%
    10:00 +27°C° 0 mm 1 mps 757 mmHg 54%
    11:00 +29°C° 0 mm 1 mps 757 mmHg 49%
    12:00 +30°C° 0 mm 2 mps 757 mmHg 47%
    13:00 +30°C° 0 mm 3 mps 757 mmHg 46%
    14:00 +30°C° 0 mm 3 mps 756 mmHg 45%
    15:00 +30°C° 0 mm 4 mps 756 mmHg 47%
    16:00 +29°C° 0 mm 4 mps 756 mmHg 50%
    17:00 +29°C° 0 mm 4 mps 756 mmHg 53%
    18:00 +27°C° 0 mm 4 mps 756 mmHg 61%
    19:00 +25°C° 0 mm 3 mps 756 mmHg 69%
    20:00 +22°C° 0 mm 3 mps 757 mmHg 77%
    21:00 +21°C° 0 mm 3 mps 757 mmHg 79%
    22:00 +20°C° 0 mm 2 mps 757 mmHg 81%
    23:00 +20°C° 0 mm 2 mps 757 mmHg 83%

    31 May, Friday

    Time Temperature Precipitation Wind Pressure Humidity
    00:00 +20°C° 0 mm 1 mps 757 mmHg 84%
    01:00 +20°C° 0 mm 1 mps 757 mmHg 84%
    02:00 +19°C° 0 mm 1 mps 756 mmHg 85%
    03:00 +19°C° 0 mm 1 mps 756 mmHg 86%
    04:00 +18°C° 0 mm 1 mps 756 mmHg 88%
    05:00 +17°C° 0 mm 2 mps 756 mmHg 89%
    06:00 +19°C° 0 mm 2 mps 756 mmHg 84%
    07:00 +21°C° 0 mm 2 mps 756 mmHg 78%
    08:00 +23°C° 0 mm 2 mps 757 mmHg 73%
    09:00 +25°C° 0 mm 3 mps 756 mmHg 68%
    10:00 +26°C° 0 mm 3 mps 756 mmHg 63%
    11:00 +27°C° 0 mm 3 mps 756 mmHg 59%
    12:00 +27°C° 0.5 mm 3 mps 756 mmHg 61%
    13:00 +27°C° 0.5 mm 3 mps 756 mmHg 63%
    14:00 +27°C° 0.5 mm 3 mps 755 mmHg 66%
    15:00 +27°C° 0.5 mm 3 mps 755 mmHg 65%
    16:00 +26°C° 0.5 mm 2 mps 755 mmHg 65%
    17:00 +26°C° 0.5 mm 2 mps 755 mmHg 64%
    18:00 +24°C° 0.3 mm 1 mps 755 mmHg 71%
    19:00 +23°C° 0.3 mm 1 mps 755 mmHg 77%
    20:00 +21°C° 0.3 mm 1 mps 755 mmHg 83%
    21:00 +20°C° 0 mm 1 mps 755 mmHg 86%
    22:00 +19°C° 0 mm 2 mps 755 mmHg 89%
    23:00 +18°C° 0 mm 3 mps 755 mmHg 91%

    1 June, Saturday

    Time Temperature Precipitation Wind Pressure Humidity
    00:00 +17°C° 0 mm 2 mps 755 mmHg 91%
    01:00 +17°C° 0 mm 2 mps 755 mmHg 91%
    02:00 +16°C° 0 mm 2 mps 755 mmHg 91%
    03:00 +16°C° 0 mm 2 mps 755 mmHg 91%
    04:00 +16°C° 0 mm 2 mps 755 mmHg 91%
    05:00 +16°C° 0 mm 2 mps 755 mmHg 90%
    06:00 +17°C° 0 mm 2 mps 755 mmHg 83%
    07:00 +19°C° 0 mm 3 mps 755 mmHg 77%
    08:00 +21°C° 0 mm 3 mps 756 mmHg 70%
    09:00 +22°C° 0.1 mm 3 mps 755 mmHg 65%
    10:00 +24°C° 0.1 mm 2 mps 755 mmHg 60%
    11:00 +26°C° 0.1 mm 2 mps 755 mmHg 55%
    12:00 +26°C° 0.1 mm 2 mps 755 mmHg 54%
    13:00 +26°C° 0.1 mm 2 mps 755 mmHg 53%
    14:00 +26°C° 0.1 mm 1 mps 755 mmHg 52%
    15:00 +26°C° 0.3 mm 1 mps 755 mmHg 55%
    16:00 +25°C° 0.3 mm 2 mps 755 mmHg 58%
    17:00 +25°C° 0.3 mm 2 mps 754 mmHg 61%
    18:00 +24°C° 0 mm 2 mps 755 mmHg 65%
    19:00 +21°C° 0 mm 2 mps 755 mmHg 69%
    20:00 +20°C° 0 mm 2 mps 755 mmHg 73%
    21:00 +19°C° 0.2 mm 2 mps 755 mmHg 76%
    22:00 +18°C° 0.2 mm 2 mps 756 mmHg 80%
    23:00 +18°C° 0.2 mm 2 mps 756 mmHg 84%
    Show more